,,PA_Meas_PMT16A,,PR_Meas_QMR101_102,,RH_Meas_QMH101,,SR_Meas_QMS101,,TA_Meas_QMH101,,GenWind,,GenWind,
time,status,PA,status,PR,status,RH,status,SR,status,TA,status,DirAvg,status,SpdAvg,
2010-09-24, 00:00:05,VALID,918.402,VALID,0,VALID,97.6178,VALID,0,VALID,19.2723,VALID,2,VALID,0.544141,
2010-09-24, 00:01:05,VALID,918.405,VALID,0,VALID,97.6026,VALID,0,VALID,19.2723,VALID,2,VALID,0.848437,
2010-09-24, 00:02:05,VALID,918.388,VALID,0,VALID,97.6026,VALID,0,VALID,19.2738,VALID,2,VALID,0.726172,
2010-09-24, 00:03:05,VALID,918.369,VALID,0,VALID,97.6102,VALID,0,VALID,19.2738,VALID,2,VALID,0.671484,
2010-09-24, 00:04:05,VALID,918.377,VALID,0,VALID,97.6026,VALID,0,VALID,19.2528,VALID,2,VALID,0.640625,
2010-09-24, 00:05:05,VALID,918.355,VALID,0,VALID,97.6026,VALID,0,VALID,19.2723,VALID,2,VALID,0.521484,
2010-09-24, 00:06:05,VALID,918.374,VALID,0,VALID,97.6026,VALID,0,VALID,19.2933,VALID,2,VALID,0.454688,
2010-09-24, 00:07:05,VALID,918.346,VALID,0.2,VALID,97.6102,VALID,0,VALID,19.2933,VALID,2,VALID,0.623828,
2010-09-24, 00:08:05,VALID,918.322,VALID,0,VALID,97.6102,VALID,0,VALID,19.2723,VALID,2,VALID,0.561719,
2010-09-24, 00:09:05,VALID,918.342,VALID,0,VALID,97.6026,VALID,0,VALID,19.2933,VALID,2,VALID,0.594922,
2010-09-24, 00:10:05,VALID,918.351,VALID,0,VALID,97.6255,VALID,0,VALID,19.2723,VALID,2,VALID,0.775,
2010-09-24, 00:11:05,VALID,918.328,VALID,0,VALID,97.6102,VALID,0,VALID,19.2723,VALID,2,VALID,0.394531,
2010-09-24, 00:12:05,VALID,918.314,VALID,0,VALID,97.6102,VALID,0,VALID,19.3128,VALID,2,VALID,0.627734,
2010-09-24, 00:13:05,VALID,918.263,VALID,0,VALID,97.6102,VALID,0,VALID,19.3128,VALID,2,VALID,0.214844,
2010-09-24, 00:14:05,VALID,918.273,VALID,0,VALID,97.6331,VALID,0,VALID,19.2723,VALID,2,VALID,0.527734,
2010-09-24, 00:15:05,VALID,918.261,VALID,0,VALID,97.6178,VALID,0,VALID,19.2738,VALID,2,VALID,0.214062,
2010-09-24, 00:16:05,VALID,918.253,VALID,0,VALID,97.6255,VALID,0,VALID,19.2738,VALID,2,VALID,0.280469,
2010-09-24, 00:17:05,VALID,918.258,VALID,0,VALID,97.6255,VALID,0,VALID,19.2738,VALID,2,VALID,0.408984,
2010-09-24, 00:18:05,VALID,918.194,VALID,0,VALID,97.6102,VALID,0,VALID,19.2528,VALID,2,VALID,0.451172,
2010-09-24, 00:19:05,VALID,918.214,VALID,0,VALID,97.6255,VALID,0,VALID,19.2738,VALID,2,VALID,0.291016,
2010-09-24, 00:20:05,VALID,918.209,VALID,0,VALID,97.6255,VALID,0,VALID,19.2738,VALID,2,VALID,0.420703,
2010-09-24, 00:21:05,VALID,918.199,VALID,0,VALID,97.6178,VALID,0,VALID,19.2738,VALID,2,VALID,0.371094,
2010-09-24, 00:22:05,VALID,918.176,VALID,0,VALID,97.6331,VALID,0,VALID,19.2738,VALID,2,VALID,0.528906,
2010-09-24, 00:23:05,VALID,918.175,VALID,0.2,VALID,97.6178,VALID,0,VALID,19.2543,VALID,2,VALID,0.578125,
2010-09-24, 00:24:05,VALID,918.162,VALID,0,VALID,97.6026,VALID,0,VALID,19.2738,VALID,2,VALID,0.508984,
2010-09-24, 00:25:05,VALID,918.156,VALID,0,VALID,97.6102,VALID,0,VALID,19.2738,VALID,2,VALID,0.624609,
2010-09-24, 00:26:05,VALID,918.129,VALID,0,VALID,97.6178,VALID,0,VALID,19.2543,VALID,2,VALID,0.698828,
2010-09-24, 00:27:05,VALID,918.123,VALID,0,VALID,97.6255,VALID,0,VALID,19.2528,VALID,2,VALID,0.813281,
2010-09-24, 00:28:05,VALID,918.12,VALID,0,VALID,97.6483,VALID,0,VALID,19.2738,VALID,2,VALID,0.489844,
2010-09-24, 00:29:05,VALID,918.089,VALID,0,VALID,97.6407,VALID,0,VALID,19.2528,VALID,2,VALID,0.776563,
2010-09-24, 00:30:05,VALID,918.1,VALID,0,VALID,97.6178,VALID,0,VALID,19.2528,VALID,2,VALID,0.509766,
2010-09-24, 00:31:05,VALID,918.091,VALID,0,VALID,97.6102,VALID,0,VALID,19.2738,VALID,2,VALID,0.655859,
2010-09-24, 00:32:05,VALID,918.067,VALID,0,VALID,97.6331,VALID,0,VALID,19.2738,VALID,2,VALID,0.708984,
2010-09-24, 00:33:05,VALID,918.038,VALID,0,VALID,97.6102,VALID,0,VALID,19.2528,VALID,2,VALID,0.65,
2010-09-24, 00:34:05,VALID,918.036,VALID,0,VALID,97.6407,VALID,0,VALID,19.2334,VALID,2,VALID,0.591797,
2010-09-24, 00:35:05,VALID,918.036,VALID,0,VALID,97.6178,VALID,0,VALID,19.2528,VALID,2,VALID,0.648828,
2010-09-24, 00:36:05,VALID,918.03,VALID,0,VALID,97.6255,VALID,0,VALID,19.2528,VALID,2,VALID,0.505078,
2010-09-24, 00:37:05,VALID,918.011,VALID,0,VALID,97.6178,VALID,0,VALID,19.2528,VALID,2,VALID,0.5125,
2010-09-24, 00:38:05,VALID,918.024,VALID,0,VALID,97.6331,VALID,0,VALID,19.2543,VALID,2,VALID,0.386719,
2010-09-24, 00:39:05,VALID,917.988,VALID,0,VALID,97.6331,VALID,0,VALID,19.2528,VALID,2,VALID,0.449609,
2010-09-24, 00:40:05,VALID,917.996,VALID,0.2,VALID,97.6331,VALID,0,VALID,19.2543,VALID,2,VALID,0.562891,
2010-09-24, 00:41:05,VALID,917.951,VALID,0,VALID,97.6255,VALID,0,VALID,19.2348,VALID,2,VALID,0.570313,
2010-09-24, 00:42:05,VALID,917.939,VALID,0,VALID,97.6331,VALID,0,VALID,19.2153,VALID,2,VALID,0.838281,
2010-09-24, 00:43:05,VALID,917.976,VALID,0,VALID,97.6178,VALID,0.107441,VALID,19.1944,VALID,2,VALID,0.710547,
2010-09-24, 00:44:05,VALID,917.96,VALID,0,VALID,97.6407,VALID,0,VALID,19.2139,VALID,2,VALID,0.810156,
2010-09-24, 00:45:05,VALID,917.963,VALID,0,VALID,97.6331,VALID,0,VALID,19.1944,VALID,2,VALID,0.889063,
2010-09-24, 00:46:05,VALID,917.982,VALID,0,VALID,97.6255,VALID,0,VALID,19.2153,VALID,2,VALID,0.837891,
2010-09-24, 00:47:05,VALID,917.942,VALID,0,VALID,97.6407,VALID,0,VALID,19.2153,VALID,2,VALID,0.917188,
2010-09-24, 00:48:05,VALID,917.921,VALID,0,VALID,97.6331,VALID,0,VALID,19.1958,VALID,2,VALID,0.842188,
2010-09-24, 00:49:05,VALID,917.899,VALID,0,VALID,97.6178,VALID,0,VALID,19.2153,VALID,2,VALID,0.653125,
2010-09-24, 00:50:05,VALID,917.864,VALID,0,VALID,97.6407,VALID,0,VALID,19.1958,VALID,2,VALID,0.628125,
2010-09-24, 00:51:05,VALID,917.842,VALID,0,VALID,97.656,VALID,0,VALID,19.1749,VALID,2,VALID,0.321094,
2010-09-24, 00:52:05,VALID,917.804,VALID,0,VALID,97.6407,VALID,0,VALID,19.1958,VALID,2,VALID,0.210547,
2010-09-24, 00:53:05,VALID,917.781,VALID,0,VALID,97.6636,VALID,0,VALID,19.1958,VALID,2,VALID,0.205078,
2010-09-24, 00:54:05,VALID,917.778,VALID,0,VALID,97.6483,VALID,0,VALID,19.1749,VALID,2,VALID,0,
2010-09-24, 00:55:05,VALID,917.719,VALID,0,VALID,97.656,VALID,0,VALID,19.1554,VALID,2,VALID,0,
2010-09-24, 00:56:05,VALID,917.707,VALID,0,VALID,97.6331,VALID,0.107441,VALID,19.1944,VALID,2,VALID,0,
2010-09-24, 00:57:05,VALID,917.728,VALID,0,VALID,97.656,VALID,0,VALID,19.2348,VALID,2,VALID,0,
2010-09-24, 00:58:05,VALID,917.692,VALID,0,VALID,97.6407,VALID,0,VALID,19.2139,VALID,2,VALID,0.0664063,
2010-09-24, 00:59:05,VALID,917.645,VALID,0,VALID,97.6331,VALID,0,VALID,19.2334,VALID,2,VALID,0,
2010-09-24, 01:00:05,VALID,917.652,VALID,0,VALID,97.6407,VALID,0,VALID,19.1944,VALID,2,VALID,0.119531,
2010-09-24, 01:01:05,VALID,917.64,VALID,0,VALID,97.6407,VALID,0,VALID,19.2153,VALID,2,VALID,0.370703,
2010-09-24, 01:02:05,VALID,917.621,VALID,0,VALID,97.6483,VALID,0,VALID,19.1749,VALID,2,VALID,0.269922,
2010-09-24, 01:03:05,VALID,917.61,VALID,0,VALID,97.6483,VALID,0,VALID,19.1749,VALID,2,VALID,0.272266,
2010-09-24, 01:04:05,VALID,917.61,VALID,0,VALID,97.656,VALID,0,VALID,19.1944,VALID,2,VALID,0.280078,
2010-09-24, 01:05:05,VALID,917.606,VALID,0,VALID,97.656,VALID,0.107441,VALID,19.1749,VALID,2,VALID,0.196875,
2010-09-24, 01:06:05,VALID,917.563,VALID,0,VALID,97.656,VALID,0,VALID,19.1944,VALID,2,VALID,0.183984,
2010-09-24, 01:07:05,VALID,917.572,VALID,0,VALID,97.6407,VALID,0.107441,VALID,19.2139,VALID,2,VALID,0.158203,
2010-09-24, 01:08:05,VALID,917.541,VALID,0,VALID,97.656,VALID,0,VALID,19.1958,VALID,2,VALID,0.325,
2010-09-24, 01:09:04,VALID,917.553,VALID,0,VALID,97.656,VALID,0,VALID,19.1749,VALID,2,VALID,0.282422,
2010-09-24, 01:10:04,VALID,917.562,VALID,0,VALID,97.6483,VALID,0,VALID,19.1944,VALID,2,VALID,0.36875,
2010-09-24, 01:11:04,VALID,917.539,VALID,0,VALID,97.6407,VALID,0.107441,VALID,19.2139,VALID,2,VALID,0.389844,
2010-09-24, 01:12:04,VALID,917.541,VALID,0,VALID,97.6483,VALID,0,VALID,19.1554,VALID,2,VALID,0.437891,
2010-09-24, 01:13:04,VALID,917.545,VALID,0,VALID,97.6407,VALID,0,VALID,19.1164,VALID,2,VALID,0.558203,
2010-09-24, 01:14:04,VALID,917.517,VALID,0,VALID,97.6636,VALID,0,VALID,19.0983,VALID,2,VALID,0.621094,
2010-09-24, 01:15:04,VALID,917.521,VALID,0,VALID,97.6636,VALID,0,VALID,19.0983,VALID,2,VALID,0.637891,
2010-09-24, 01:16:04,VALID,917.493,VALID,0,VALID,97.6483,VALID,0,VALID,19.0384,VALID,2,VALID,0.653906,
2010-09-24, 01:17:04,VALID,917.483,VALID,0,VALID,97.656,VALID,0,VALID,19.0593,VALID,2,VALID,0.635156,
2010-09-24, 01:18:04,VALID,917.476,VALID,0,VALID,97.6636,VALID,0,VALID,19.0384,VALID,2,VALID,0.682813,
2010-09-24, 01:19:04,VALID,917.471,VALID,0,VALID,97.6712,VALID,0,VALID,19.0384,VALID,2,VALID,0.687891,
2010-09-24, 01:20:04,VALID,917.428,VALID,0,VALID,97.6712,VALID,0,VALID,19.0593,VALID,2,VALID,0.585938,
2010-09-24, 01:21:04,VALID,917.437,VALID,0,VALID,97.6788,VALID,0,VALID,19.0384,VALID,2,VALID,0.439063,
2010-09-24, 01:22:04,VALID,917.43,VALID,0,VALID,97.6636,VALID,0,VALID,19.0384,VALID,2,VALID,0.378516,
2010-09-24, 01:23:04,VALID,917.398,VALID,0,VALID,97.6712,VALID,0,VALID,19.0788,VALID,2,VALID,0.503516,
2010-09-24, 01:24:04,VALID,917.394,VALID,0,VALID,97.6712,VALID,0,VALID,19.0579,VALID,2,VALID,0.417969,
2010-09-24, 01:25:04,VALID,917.354,VALID,0,VALID,97.6712,VALID,0,VALID,19.0384,VALID,2,VALID,0.489453,
2010-09-24, 01:26:04,VALID,917.316,VALID,0,VALID,97.6636,VALID,0,VALID,19.0593,VALID,2,VALID,0.392578,
2010-09-24, 01:27:04,VALID,917.311,VALID,0,VALID,97.6788,VALID,0,VALID,19.0593,VALID,2,VALID,0.379687,
2010-09-24, 01:28:04,VALID,917.265,VALID,0,VALID,97.6636,VALID,0,VALID,19.0593,VALID,2,VALID,0.350781,
2010-09-24, 01:29:04,VALID,917.237,VALID,0,VALID,97.6865,VALID,0,VALID,19.0189,VALID,2,VALID,0.452344,
2010-09-24, 01:30:04,VALID,917.208,VALID,0,VALID,97.6865,VALID,0,VALID,19.0398,VALID,2,VALID,0.591016,
2010-09-24, 01:31:04,VALID,917.214,VALID,0,VALID,97.6788,VALID,0,VALID,19.0203,VALID,2,VALID,0.696484,
2010-09-24, 01:32:04,VALID,917.195,VALID,0,VALID,97.6865,VALID,0,VALID,18.9994,VALID,2,VALID,0.770703,
2010-09-24, 01:33:04,VALID,917.177,VALID,0,VALID,97.6712,VALID,0,VALID,19.0203,VALID,2,VALID,0.507031,
2010-09-24, 01:34:04,VALID,917.139,VALID,0,VALID,97.6865,VALID,0,VALID,19.0203,VALID,2,VALID,0.480859,
2010-09-24, 01:35:04,VALID,917.129,VALID,0,VALID,97.6865,VALID,0,VALID,19.0398,VALID,2,VALID,0.533594,
2010-09-24, 01:36:04,VALID,917.121,VALID,0,VALID,97.7017,VALID,0,VALID,19.0189,VALID,2,VALID,0.291016,
2010-09-24, 01:37:04,VALID,917.078,VALID,0,VALID,97.6712,VALID,0,VALID,19.0593,VALID,2,VALID,0.332422,
2010-09-24, 01:38:04,VALID,917.064,VALID,0,VALID,97.6865,VALID,0,VALID,19.0189,VALID,2,VALID,0.387891,
2010-09-24, 01:39:04,VALID,917.042,VALID,0,VALID,97.7017,VALID,0,VALID,19.0398,VALID,2,VALID,0.296875,
2010-09-24, 01:40:04,VALID,917.059,VALID,0,VALID,97.6865,VALID,0,VALID,18.9994,VALID,2,VALID,0.191016,
2010-09-24, 01:41:04,VALID,917.005,VALID,0,VALID,97.6788,VALID,0,VALID,19.0203,VALID,2,VALID,0.0359375,
2010-09-24, 01:42:04,VALID,917.051,VALID,0,VALID,97.6865,VALID,0,VALID,19.0008,VALID,2,VALID,0.120312,
2010-09-24, 01:43:04,VALID,916.995,VALID,0,VALID,97.6865,VALID,0,VALID,18.9619,VALID,2,VALID,0.0292969,
2010-09-24, 01:44:04,VALID,917.016,VALID,0,VALID,97.6941,VALID,0,VALID,18.9619,VALID,2,VALID,0.488281,
2010-09-24, 01:45:04,VALID,916.966,VALID,0,VALID,97.7169,VALID,0,VALID,18.9619,VALID,2,VALID,0.525,
2010-09-24, 01:46:04,VALID,916.971,VALID,0,VALID,97.6941,VALID,0,VALID,18.9814,VALID,2,VALID,0.35625,
2010-09-24, 01:47:04,VALID,916.969,VALID,0,VALID,97.6941,VALID,0,VALID,18.9409,VALID,2,VALID,0.549219,
2010-09-24, 01:48:04,VALID,916.961,VALID,0,VALID,97.7093,VALID,0,VALID,18.9814,VALID,2,VALID,0.621484,
2010-09-24, 01:49:04,VALID,916.952,VALID,0,VALID,97.6941,VALID,0,VALID,18.9619,VALID,2,VALID,0.567187,
2010-09-24, 01:50:04,VALID,916.923,VALID,0,VALID,97.7169,VALID,0,VALID,18.9409,VALID,2,VALID,0.59375,
2010-09-24, 01:51:04,VALID,916.94,VALID,0,VALID,97.6941,VALID,0,VALID,18.9619,VALID,2,VALID,0.40625,
2010-09-24, 01:52:04,VALID,916.912,VALID,0,VALID,97.7093,VALID,0,VALID,18.9619,VALID,2,VALID,0.291016,
2010-09-24, 01:53:04,VALID,916.895,VALID,0,VALID,97.6941,VALID,0,VALID,18.9619,VALID,2,VALID,0.273828,
2010-09-24, 01:54:04,VALID,916.892,VALID,0,VALID,97.7017,VALID,0,VALID,18.9424,VALID,2,VALID,0.00742187,
2010-09-24, 01:55:04,VALID,916.897,VALID,0,VALID,97.6865,VALID,0,VALID,18.9424,VALID,2,VALID,0,
2010-09-24, 01:56:04,VALID,916.836,VALID,0,VALID,97.6865,VALID,0,VALID,18.9424,VALID,2,VALID,0.273828,
2010-09-24, 01:57:04,VALID,916.867,VALID,0,VALID,97.7017,VALID,0,VALID,18.9424,VALID,2,VALID,0.152734,
2010-09-24, 01:58:04,VALID,916.848,VALID,0,VALID,97.6941,VALID,0,VALID,18.9424,VALID,2,VALID,0.292969,
2010-09-24, 01:59:04,VALID,916.834,VALID,0,VALID,97.7093,VALID,0,VALID,18.9424,VALID,2,VALID,0.394141,
2010-09-24, 02:00:04,VALID,916.839,VALID,0,VALID,97.7017,VALID,0,VALID,18.9814,VALID,2,VALID,0.548437,
2010-09-24, 02:01:04,VALID,916.834,VALID,0,VALID,97.6941,VALID,0,VALID,18.9814,VALID,2,VALID,0.277734,
2010-09-24, 02:02:04,VALID,916.851,VALID,0,VALID,97.7322,VALID,0,VALID,18.9814,VALID,2,VALID,0.323438,
2010-09-24, 02:03:04,VALID,916.827,VALID,0,VALID,97.6941,VALID,0,VALID,18.9814,VALID,2,VALID,0.380859,
2010-09-24, 02:04:04,VALID,916.845,VALID,0,VALID,97.7093,VALID,0,VALID,18.9814,VALID,2,VALID,0.546875,
2010-09-24, 02:05:04,VALID,916.801,VALID,0,VALID,97.7169,VALID,0,VALID,18.9604,VALID,2,VALID,0.239453,
2010-09-24, 02:06:04,VALID,916.792,VALID,0,VALID,97.7093,VALID,0,VALID,18.9619,VALID,2,VALID,0.198047,
2010-09-24, 02:07:04,VALID,916.797,VALID,0,VALID,97.7017,VALID,0,VALID,18.9619,VALID,2,VALID,0.392188,
2010-09-24, 02:08:04,VALID,916.742,VALID,0,VALID,97.7017,VALID,0,VALID,18.9619,VALID,2,VALID,0.367188,
2010-09-24, 02:09:04,VALID,916.73,VALID,0,VALID,97.7093,VALID,0,VALID,18.9424,VALID,2,VALID,0.479297,
2010-09-24, 02:10:04,VALID,916.705,VALID,0,VALID,97.7093,VALID,0,VALID,18.9229,VALID,2,VALID,0.481641,
2010-09-24, 02:11:04,VALID,916.693,VALID,0,VALID,97.7017,VALID,0,VALID,18.9424,VALID,2,VALID,0.452344,
2010-09-24, 02:12:04,VALID,916.678,VALID,0,VALID,97.7169,VALID,0,VALID,18.9424,VALID,2,VALID,0.427734,
2010-09-24, 02:13:04,VALID,916.644,VALID,0,VALID,97.7169,VALID,0,VALID,18.9229,VALID,2,VALID,0.389062,
2010-09-24, 02:14:04,VALID,916.629,VALID,0,VALID,97.7169,VALID,0,VALID,18.9619,VALID,2,VALID,0.281641,
2010-09-24, 02:15:04,VALID,916.627,VALID,0,VALID,97.7169,VALID,0,VALID,18.9424,VALID,2,VALID,0.407031,
2010-09-24, 02:16:04,VALID,916.621,VALID,0,VALID,97.7322,VALID,0,VALID,18.9424,VALID,2,VALID,0.532422,
2010-09-24, 02:17:04,VALID,916.589,VALID,0,VALID,97.6941,VALID,0,VALID,18.9229,VALID,2,VALID,0.325781,
2010-09-24, 02:18:04,VALID,916.635,VALID,0,VALID,97.7169,VALID,0,VALID,18.9214,VALID,2,VALID,0.551562,
2010-09-24, 02:19:04,VALID,916.611,VALID,0,VALID,97.7169,VALID,0,VALID,18.9034,VALID,2,VALID,0.560547,
2010-09-24, 02:20:04,VALID,916.615,VALID,0,VALID,97.7093,VALID,0,VALID,18.8839,VALID,2,VALID,0.507031,
2010-09-24, 02:21:04,VALID,916.628,VALID,0,VALID,97.7398,VALID,0,VALID,18.8839,VALID,2,VALID,1.01875,
2010-09-24, 02:22:04,VALID,916.609,VALID,0,VALID,97.7322,VALID,0,VALID,18.8839,VALID,2,VALID,1.00039,
2010-09-24, 02:23:04,VALID,916.608,VALID,0,VALID,97.7246,VALID,0,VALID,18.8644,VALID,2,VALID,0.811719,
2010-09-24, 02:24:04,VALID,916.588,VALID,0,VALID,97.7398,VALID,0,VALID,18.8839,VALID,2,VALID,0.720703,
2010-09-24, 02:25:04,VALID,916.585,VALID,0,VALID,97.7093,VALID,0,VALID,18.8644,VALID,2,VALID,0.735156,
2010-09-24, 02:26:04,VALID,916.575,VALID,0,VALID,97.7551,VALID,0,VALID,18.8434,VALID,2,VALID,0.4625,
2010-09-24, 02:27:04,VALID,916.541,VALID,0,VALID,97.7093,VALID,0,VALID,18.8839,VALID,2,VALID,0.244531,
2010-09-24, 02:28:04,VALID,916.553,VALID,0,VALID,97.7246,VALID,0,VALID,18.8839,VALID,2,VALID,0.658594,
2010-09-24, 02:29:04,VALID,916.536,VALID,0,VALID,97.7246,VALID,0,VALID,18.8644,VALID,2,VALID,0.585938,
2010-09-24, 02:30:04,VALID,916.535,VALID,0,VALID,97.7398,VALID,0,VALID,18.8434,VALID,2,VALID,0.580859,
2010-09-24, 02:31:04,VALID,916.505,VALID,0,VALID,97.7322,VALID,0,VALID,18.8449,VALID,2,VALID,0.664453,
2010-09-24, 02:32:04,VALID,916.507,VALID,0,VALID,97.7398,VALID,0,VALID,18.8045,VALID,2,VALID,0.51875,
2010-09-24, 02:33:04,VALID,916.499,VALID,0,VALID,97.7322,VALID,0,VALID,18.8045,VALID,2,VALID,0.339453,
2010-09-24, 02:34:04,VALID,916.499,VALID,0,VALID,97.7398,VALID,0,VALID,18.8463,VALID,2,VALID,0.542969,
2010-09-24, 02:35:04,VALID,916.496,VALID,0,VALID,97.7322,VALID,0,VALID,18.8254,VALID,2,VALID,0.614062,
2010-09-24, 02:36:04,VALID,916.428,VALID,0,VALID,97.7322,VALID,0,VALID,18.8254,VALID,2,VALID,0.290234,
2010-09-24, 02:37:04,VALID,916.432,VALID,0,VALID,97.7474,VALID,0,VALID,18.8839,VALID,2,VALID,0.378516,
2010-09-24, 02:38:04,VALID,916.448,VALID,0,VALID,97.7398,VALID,0,VALID,18.9034,VALID,2,VALID,0.35,
2010-09-24, 02:39:04,VALID,916.388,VALID,0,VALID,97.7398,VALID,0,VALID,18.8839,VALID,2,VALID,0.0542969,
2010-09-24, 02:40:04,VALID,916.408,VALID,0,VALID,97.7398,VALID,0,VALID,18.9034,VALID,2,VALID,0.278125,
2010-09-24, 02:41:04,VALID,916.401,VALID,0,VALID,97.7322,VALID,0,VALID,18.9229,VALID,2,VALID,0.554688,
2010-09-24, 02:42:04,VALID,916.405,VALID,0,VALID,97.7322,VALID,0,VALID,18.9229,VALID,2,VALID,0.662891,
2010-09-24, 02:43:04,VALID,916.394,VALID,0,VALID,97.7322,VALID,0,VALID,18.9034,VALID,2,VALID,0.782031,
2010-09-24, 02:44:04,VALID,916.405,VALID,0,VALID,97.7627,VALID,0,VALID,18.9034,VALID,2,VALID,0.637109,
2010-09-24, 02:45:04,VALID,916.405,VALID,0,VALID,97.7322,VALID,0,VALID,18.8644,VALID,2,VALID,0.489062,
2010-09-24, 02:46:04,VALID,916.378,VALID,0,VALID,97.7551,VALID,0,VALID,18.8629,VALID,2,VALID,0.648828,
2010-09-24, 02:47:04,VALID,916.4,VALID,0,VALID,97.7398,VALID,0,VALID,18.8644,VALID,2,VALID,0.49375,
2010-09-24, 02:48:04,VALID,916.381,VALID,0,VALID,97.7398,VALID,0,VALID,18.8449,VALID,2,VALID,0.633203,
2010-09-24, 02:49:04,VALID,916.335,VALID,0,VALID,97.7551,VALID,0,VALID,18.8644,VALID,2,VALID,0.785937,
2010-09-24, 02:50:04,VALID,916.359,VALID,0,VALID,97.7322,VALID,0,VALID,18.8644,VALID,127,VALID,0.832031,
2010-09-24, 02:51:04,VALID,916.351,VALID,0,VALID,97.7474,VALID,0,VALID,18.8644,VALID,138,VALID,0.660547,
2010-09-24, 02:52:04,VALID,916.372,VALID,0,VALID,97.7627,VALID,0,VALID,18.8449,VALID,138,VALID,0.475781,
2010-09-24, 02:53:04,VALID,916.396,VALID,0,VALID,97.7169,VALID,0,VALID,18.8449,VALID,138,VALID,0.783203,
2010-09-24, 02:54:04,VALID,916.39,VALID,0,VALID,97.7322,VALID,0,VALID,18.8644,VALID,138,VALID,0.356641,
2010-09-24, 02:55:04,VALID,916.393,VALID,0,VALID,97.7398,VALID,0,VALID,18.8644,VALID,138,VALID,0.289453,
2010-09-24, 02:56:04,VALID,916.36,VALID,0,VALID,97.7398,VALID,0,VALID,18.8644,VALID,138,VALID,0.342578,
2010-09-24, 02:57:04,VALID,916.396,VALID,0,VALID,97.7551,VALID,0,VALID,18.8644,VALID,138,VALID,0.258203,
2010-09-24, 02:58:04,VALID,916.383,VALID,0,VALID,97.7322,VALID,0,VALID,18.9034,VALID,138,VALID,0.369141,
2010-09-24, 02:59:04,VALID,916.347,VALID,0,VALID,97.7398,VALID,0,VALID,18.9034,VALID,138,VALID,0.21875,
2010-09-24, 03:00:04,VALID,916.355,VALID,0,VALID,97.7474,VALID,0,VALID,18.9034,VALID,138,VALID,0.595312,
2010-09-24, 03:01:04,VALID,916.361,VALID,0,VALID,97.7474,VALID,0,VALID,18.8824,VALID,138,VALID,0.637109,
2010-09-24, 03:02:04,VALID,916.365,VALID,0,VALID,97.7398,VALID,0,VALID,18.9229,VALID,138,VALID,0.3625,
2010-09-24, 03:03:04,VALID,916.366,VALID,0,VALID,97.7474,VALID,0,VALID,18.9424,VALID,138,VALID,0,
2010-09-24, 03:04:04,VALID,916.354,VALID,0,VALID,97.7246,VALID,0,VALID,18.9619,VALID,138,VALID,0.0457031,
2010-09-24, 03:05:04,VALID,916.37,VALID,0,VALID,97.7551,VALID,0,VALID,18.9214,VALID,138,VALID,0.397266,
2010-09-24, 03:06:04,VALID,916.326,VALID,0,VALID,97.7398,VALID,0,VALID,18.9229,VALID,138,VALID,0.366797,
2010-09-24, 03:07:04,VALID,916.33,VALID,0,VALID,97.7398,VALID,0,VALID,18.9034,VALID,138,VALID,0.55625,
2010-09-24, 03:08:04,VALID,916.334,VALID,0,VALID,97.7551,VALID,0,VALID,18.8839,VALID,138,VALID,0.219141,
2010-09-24, 03:09:04,VALID,916.331,VALID,0,VALID,97.7551,VALID,0,VALID,18.8839,VALID,138,VALID,0.427344,
2010-09-24, 03:10:04,VALID,916.315,VALID,0.2,VALID,97.7551,VALID,0,VALID,18.8644,VALID,138,VALID,0.382031,
2010-09-24, 03:11:04,VALID,916.326,VALID,0,VALID,97.7474,VALID,0,VALID,18.8644,VALID,138,VALID,0.426172,
2010-09-24, 03:12:04,VALID,916.277,VALID,0,VALID,97.7322,VALID,0,VALID,18.8839,VALID,138,VALID,0.536719,
2010-09-24, 03:13:04,VALID,916.276,VALID,0,VALID,97.7398,VALID,0,VALID,18.9034,VALID,138,VALID,0.555078,
2010-09-24, 03:14:04,VALID,916.302,VALID,0,VALID,97.7398,VALID,0,VALID,18.9034,VALID,138,VALID,0.429688,
2010-09-24, 03:15:04,VALID,916.277,VALID,0,VALID,97.7474,VALID,0,VALID,18.9034,VALID,138,VALID,0.444141,
2010-09-24, 03:16:04,VALID,916.288,VALID,0,VALID,97.7398,VALID,0,VALID,18.9034,VALID,138,VALID,0.401172,
2010-09-24, 03:17:04,VALID,916.281,VALID,0,VALID,97.7398,VALID,0,VALID,18.9034,VALID,138,VALID,0.563672,
2010-09-24, 03:18:04,VALID,916.254,VALID,0,VALID,97.7474,VALID,0,VALID,18.9034,VALID,138,VALID,0.501172,
2010-09-24, 03:19:04,VALID,916.259,VALID,0,VALID,97.7322,VALID,0,VALID,18.9034,VALID,138,VALID,0.419141,
2010-09-24, 03:20:04,VALID,916.248,VALID,0,VALID,97.7322,VALID,0,VALID,18.9034,VALID,138,VALID,0.264844,
2010-09-24, 03:21:04,VALID,916.237,VALID,0,VALID,97.7398,VALID,0,VALID,18.9229,VALID,138,VALID,0.177734,
2010-09-24, 03:22:04,VALID,916.252,VALID,0,VALID,97.7398,VALID,0,VALID,18.9229,VALID,138,VALID,0.323438,
2010-09-24, 03:23:04,VALID,916.198,VALID,0,VALID,97.7551,VALID,0,VALID,18.9229,VALID,138,VALID,0.21875,
2010-09-24, 03:24:04,VALID,916.23,VALID,0,VALID,97.7474,VALID,0,VALID,18.9034,VALID,138,VALID,0,
2010-09-24, 03:25:04,VALID,916.191,VALID,0,VALID,97.7627,VALID,0,VALID,18.8839,VALID,138,VALID,0,
2010-09-24, 03:26:04,VALID,916.193,VALID,0,VALID,97.7551,VALID,0,VALID,18.8824,VALID,138,VALID,0,
2010-09-24, 03:27:04,VALID,916.186,VALID,0,VALID,97.7474,VALID,0,VALID,18.9034,VALID,138,VALID,0,
2010-09-24, 03:28:04,VALID,916.184,VALID,0,VALID,97.7398,VALID,0,VALID,18.9034,VALID,138,VALID,0,
2010-09-24, 03:29:04,VALID,916.184,VALID,0,VALID,97.7551,VALID,0,VALID,18.9034,VALID,138,VALID,0,
2010-09-24, 03:30:04,VALID,916.148,VALID,0,VALID,97.7474,VALID,0,VALID,18.9034,VALID,138,VALID,0,
2010-09-24, 03:31:04,VALID,916.139,VALID,0,VALID,97.7474,VALID,0,VALID,18.9229,VALID,138,VALID,0,
2010-09-24, 03:32:04,VALID,916.144,VALID,0,VALID,97.7398,VALID,0,VALID,18.9424,VALID,138,VALID,0,
2010-09-24, 03:33:04,VALID,916.14,VALID,0,VALID,97.7246,VALID,0,VALID,18.9229,VALID,138,VALID,0,
2010-09-24, 03:34:04,VALID,916.126,VALID,0,VALID,97.7398,VALID,0,VALID,18.9438,VALID,138,VALID,0,
2010-09-24, 03:35:04,VALID,916.13,VALID,0,VALID,97.7551,VALID,0,VALID,18.8824,VALID,138,VALID,0,
2010-09-24, 03:36:04,VALID,916.112,VALID,0,VALID,97.7474,VALID,0,VALID,18.8839,VALID,138,VALID,0,
2010-09-24, 03:37:04,VALID,916.078,VALID,0,VALID,97.7627,VALID,0,VALID,18.8839,VALID,138,VALID,0.236328,
2010-09-24, 03:38:04,VALID,916.109,VALID,0,VALID,97.7474,VALID,0,VALID,18.8644,VALID,138,VALID,0.160156,
2010-09-24, 03:39:04,VALID,916.103,VALID,0,VALID,97.7627,VALID,0,VALID,18.8644,VALID,138,VALID,0.152344,
2010-09-24, 03:40:04,VALID,916.102,VALID,0,VALID,97.7551,VALID,0,VALID,18.8644,VALID,138,VALID,0.0554687,
2010-09-24, 03:41:04,VALID,916.102,VALID,0,VALID,97.7474,VALID,0,VALID,18.8254,VALID,138,VALID,0.207422,
2010-09-24, 03:42:04,VALID,916.071,VALID,0,VALID,97.7551,VALID,0,VALID,18.8463,VALID,138,VALID,0.280078,
2010-09-24, 03:43:04,VALID,916.062,VALID,0,VALID,97.7627,VALID,0,VALID,18.8254,VALID,138,VALID,0.428516,
2010-09-24, 03:44:04,VALID,916.063,VALID,0,VALID,97.7551,VALID,0,VALID,18.8254,VALID,138,VALID,0.608203,
2010-09-24, 03:45:04,VALID,916.059,VALID,0,VALID,97.7703,VALID,0,VALID,18.8059,VALID,138,VALID,0.725781,
2010-09-24, 03:46:04,VALID,916.085,VALID,0,VALID,97.7703,VALID,0,VALID,18.8059,VALID,138,VALID,0.275,
2010-09-24, 03:47:04,VALID,916.092,VALID,0,VALID,97.7627,VALID,0,VALID,18.8059,VALID,138,VALID,0.246875,
2010-09-24, 03:48:04,VALID,916.092,VALID,0,VALID,97.7703,VALID,0,VALID,18.8059,VALID,138,VALID,0.18125,